Flag for U.S.A. Weather past 2 weeks in Prescott, Arizona, U.S.A.

Now
28 °F

Clear.


Feels Like: 21 °F
Forecast: 26 / 56 °F
Wind: 7 mph from Southwest

Location: Love Field

Current Time: Mar 5, 2015 at 3:51:36 AM

Latest Report: Mar 5, 2015 at 2:53 AM


Visibility: 10 mi

Pressure: 30.22 "Hg

Humidity: 64%

Dew point: 17 °F

Location of PrescottLocation

Historic Weather in Prescott — Graph

°F

Prescott temperature yesterday

Maximum temperature yesterday: 52 °F (at 4:53 PM)
Minimum temperature yesterday: 29 °F (at 2:53 AM)
Average temperature yesterday: 39 °F

Past Weeks' High & Low Weather Summary

 TemperatureHumidityPressure
High71 °F (Feb 19, 2:53 PM)92% (Mar 1, 7:53 AM)30.29 "Hg (Mar 1, 7:53 AM)
Low28 °F (Feb 25, 3:53 AM)8% (Feb 18, 1:53 PM)29.58 "Hg (Feb 28, 3:53 AM)
Average45 °F55%29.89 "Hg
* Reported Feb 18 2:53 AM — Mar 5 2:53 AM, Prescott, Weather by CustomWeather, © 2015

Note: Actual official high and low records may vary slightly from our data, if they occured in-between our weather recording intervals... More about our weather records

Advertising

Prescott weather history for previous 24 hours

 ConditionsComfort  
Time TempWeatherWind HumidityBarometerVisibility
2:53 AM
Thu, Mar 5
28 °FClear.7 mph64%30.22 "Hg10 mi
1:53 AM31 °FClear.5 mph57%30.21 "Hg10 mi
12:53 AM29 °FClear.5 mph69%30.20 "Hg10 mi
11:53 PM
Wed, Mar 4
33 °FClear.No wind61%30.19 "Hg10 mi
10:53 PM34 °FClear.5 mph59%30.19 "Hg10 mi
9:53 PM38 °FClear.3 mph51%30.17 "Hg10 mi
8:53 PM38 °FClear.5 mph48%30.15 "Hg10 mi
7:53 PM43 °FClear.No wind38%30.11 "Hg10 mi
6:53 PM47 °FClear.5 mph34%30.08 "Hg10 mi
5:53 PM50 °FSunny.8 mph29%30.04 "Hg10 mi
4:53 PM52 °FSunny.9 mph25%30.02 "Hg10 mi
3:53 PM51 °FScattered clouds.7 mph26%30.01 "Hg10 mi
2:53 PM50 °FPassing clouds.5 mph27%30.00 "Hg10 mi
1:53 PM50 °FPassing clouds.8 mph30%29.99 "Hg10 mi
12:53 PM48 °FPassing clouds.9 mph36%30.00 "Hg10 mi
11:53 AM45 °FPassing clouds.5 mph42%30.01 "Hg10 mi
10:53 AM42 °FPassing clouds.5 mph49%30.01 "Hg10 mi
9:53 AM38 °FPassing clouds.9 mph63%30.01 "Hg10 mi
8:53 AM35 °FPassing clouds.8 mph72%29.99 "Hg10 mi
7:53 AM32 °FSunny.8 mph79%29.97 "Hg10 mi
6:53 AM30 °FClear.9 mph79%29.93 "Hg10 mi
5:53 AM30 °FClear.6 mph79%29.91 "Hg10 mi
4:53 AM30 °FClear.6 mph82%29.90 "Hg10 mi
3:53 AM30 °FClear.6 mph82%29.88 "Hg10 mi
Weather by CustomWeather, © 2015

See weather overviewHow to use our weather pages